Regional Weather Roundup
Issued by NWS Cleveland, OH

Home | Current Version | Previous Version | Text Only | Print | Product List | Glossary Off
Versions: 1 2 3 4 5 6 7 8 9 10 11 12 13 14 15 16 17 18 19 20 21 22 23 24 25 26 27 28 29 30 31 32 33 34 35 36 37 38 39 40 41 42 43 44 45 46 47 48 49 50

000
ASUS41 KCLE 060512
RWRCLE
OHIO REGIONAL WEATHER ROUNDUP
NATIONAL WEATHER SERVICE WILMINGTON, OH
100 AM EDT FRI MAY 06 2016

NOTE: "FAIR" INDICATES FEW OR NO CLOUDS BELOW 12,000 FEET WITH NO
SIGNIFICANT WEATHER AND/OR OBSTRUCTIONS TO VISIBILITY.

OHZ001>008-015>018-024>027-034-035-043-044-060600-
   NORTHWEST OHIO

CITY           SKY/WX    TMP DP  RH WIND       PRES   REMARKS
DEFIANCE       FAIR      55  43  63 NW10      29.92S
FINDLAY        FAIR      51  37  58 NW5       29.89S
TOLEDO EXPRESS FAIR      50  39  66 NW5       29.90S
TOLEDO EXEC    FAIR      51  36  56 N3        29.91R
LIMA           FAIR      49  41  74 CALM      29.90S
$$

OHZ009>014-019>023-028>033-038-089-060600-
   NORTHEAST OHIO

CITY           SKY/WX    TMP DP  RH WIND       PRES   REMARKS
CLE-HOPKINS    FAIR      48  44  86 CALM      29.89R
CLE-LAKEFRONT  FAIR      51  45  79 VRB3      29.86R
CUY CO. ARPT   NOT AVBL
LORAIN-ELYRIA  FAIR      48  41  76 N8        29.88R
ASHTABULA      FAIR      45  43  93 CALM      29.85S
AKRON-CANTON   FAIR      48  42  80 N8        29.84R
WOOSTER        FAIR      47  43  86 N9        29.86R
MANSFIELD      CLOUDY    47  42  83 N6        29.87S
YOUNGSTOWN     FAIR      45  41  86 N7        29.83R
$$

OHZ042-051>053-060>062-070>072-077>081-060600-
  SOUTHWEST OHIO

CITY           SKY/WX    TMP DP  RH WIND       PRES   REMARKS
CINC-COVINGTON FAIR      52  45  77 NW8       29.91R
CINC-LUNKEN    FAIR      48  47  96 CALM      29.91R
HAMILTON       FAIR      50  44  80 N6        29.92R
DAYTON         FAIR      47  41  80 NW8       29.91S
WRIGHT-PAT AFB FAIR      45  43  93 CALM      29.90R
DAYTON GENERAL FAIR      51  41  68 N6        29.90R
WILMINGTON     FAIR      48  39  71 N8        29.89R
$$

OHZ036-037-039>041-045>050-054>059-063>069-073>076-082>088-060600-
  CENTRAL AND SOUTHEAST OHIO

CITY           SKY/WX    TMP DP  RH WIND       PRES   REMARKS
COLUMBUS       MOCLDY    52  42  69 N10       29.86R
OSU AIRPORT    CLOUDY    50  40  68 NW7       29.87R
BOLTON FIELD   CLOUDY    49  40  71 NW8       29.87S
RICKENBACK AFB CLOUDY    52  42  69 NW8       29.85S
NEWARK         FAIR      53  41  63 VRB6      29.84S
MARION         FAIR      48  39  71 N10       29.89R
LANCASTER      FAIR      50  42  74 NW7       29.85S
ZANESVILLE     CLOUDY    53  43  68 NW9       29.82R
NEW PHILLY     FAIR      50  42  74 NW10      29.83R
$$




USA.gov is the U.S. government's official web portal to all federal, state and local government web resources and services.